| time (UTC) | temp C | wind direction | speed KPH | gust KPH | rain 1hr cm | rain 24hr cm | rain mn cm | humidity % | barometer mb |
| 20260504021905 | 16 | 354 | 9.7 | 32.2 | 0.00 | 0.08 | 0.03 | 76 | 1032.1 |
| 20260504021406 | 16 | 284 | 8.0 | 27.4 | 0.00 | 0.08 | 0.03 | 76 | 1032.1 |
| 20260504020906 | 16 | 331 | 6.4 | 19.3 | 0.00 | 0.08 | 0.03 | 76 | 1032.1 |
| 20260504020406 | 16 | 322 | 11.3 | 27.4 | 0.00 | 0.08 | 0.03 | 76 | 1032.2 |
| 20260504015906 | 16 | 288 | 8.0 | 27.4 | 0.00 | 0.08 | 0.03 | 76 | 1032.1 |
| 20260504015407 | 16 | 301 | 12.9 | 25.7 | 0.00 | 0.08 | 0.03 | 76 | 1032.3 |
| 20260504014905 | 16 | 337 | 9.7 | 27.4 | 0.00 | 0.08 | 0.03 | 76 | 1032.3 |
| 20260504013906 | 16 | 322 | 12.9 | 33.8 | 0.00 | 0.08 | 0.03 | 76 | 1032.4 |
| 20260504013406 | 16 | 321 | 9.7 | 24.1 | 0.00 | 0.08 | 0.03 | 76 | 1032.5 |
| 20260504012906 | 16 | 329 | 11.3 | 29.0 | 0.00 | 0.08 | 0.03 | 76 | 1032.5 |
| 20260504011905 | 16 | 334 | 9.7 | 27.4 | 0.00 | 0.08 | 0.03 | 76 | 1032.5 |
| 20260504011407 | 16 | 313 | 9.7 | 32.2 | 0.00 | 0.08 | 0.03 | 76 | 1032.6 |
| 20260504010906 | 16 | 327 | 8.0 | 24.1 | 0.00 | 0.08 | 0.03 | 76 | 1032.6 |
| 20260504010405 | 16 | 347 | 11.3 | 29.0 | 0.00 | 0.08 | 0.03 | 75 | 1032.6 |
| 20260504005906 | 16 | 330 | 9.7 | 20.9 | 0.00 | 0.08 | 0.03 | 76 | 1032.7 |
| 20260504005406 | 16 | 337 | 8.0 | 20.9 | 0.00 | 0.08 | 0.03 | 76 | 1032.8 |
| 20260504004906 | 16 | 324 | 9.7 | 19.3 | 0.03 | 0.08 | 0.03 | 76 | 1032.8 |
| 20260504004405 | 16 | 295 | 8.0 | 19.3 | 0.03 | 0.08 | 0.03 | 75 | 1032.8 |
| 20260504003907 | 16 | 319 | 8.0 | 16.1 | 0.03 | 0.08 | 0.03 | 75 | 1032.9 |
| 20260504003405 | 16 | 322 | 8.0 | 19.3 | 0.03 | 0.08 | 0.03 | 74 | 1033.1 |
| 20260504002905 | 16 | 283 | 6.4 | 16.1 | 0.03 | 0.08 | 0.03 | 74 | 1033.2 |
| 20260504001906 | 16 | 324 | 6.4 | 14.5 | 0.03 | 0.08 | 0.03 | 74 | 1033.4 |
| 20260504001405 | 16 | 326 | 4.8 | 9.7 | 0.03 | 0.08 | 0.03 | 73 | 1033.4 |
| 20260504000906 | 16 | 334 | 3.2 | 8.0 | 0.03 | 0.08 | 0.03 | 74 | 1033.4 |
| 20260504000405 | 16 | 267 | 1.6 | 4.8 | 0.03 | 0.08 | 0.03 | 74 | 1033.4 |
| 20260503235907 | 16 | 356 | 1.6 | 4.8 | 0.03 | 0.08 | 0.03 | 74 | 1033.5 |
| 20260503235405 | 15 | 343 | 3.2 | 8.0 | 0.03 | 0.08 | 0.03 | 74 | 1033.6 |
| 20260503234406 | 16 | 338 | 3.2 | 8.0 | 0.00 | 0.05 | 0.00 | 74 | 1033.7 |
| 20260503233906 | 16 | 349 | 3.2 | 4.8 | 0.00 | 0.05 | 0.00 | 75 | 1033.6 |
| 20260503233405 | 15 | 345 | 3.2 | 4.8 | 0.00 | 0.05 | 0.00 | 76 | 1033.6 |
| 20260503232405 | 15 | 334 | 3.2 | 8.0 | 0.00 | 0.05 | 0.00 | 76 | 1033.6 |
| 20260503231906 | 15 | 357 | 3.2 | 4.8 | 0.00 | 0.05 | 0.00 | 75 | 1033.7 |
| 20260503231405 | 15 | 335 | 3.2 | 4.8 | 0.00 | 0.05 | 0.00 | 75 | 1033.7 |
| 20260503230405 | 15 | 339 | 3.2 | 4.8 | 0.00 | 0.05 | 0.00 | 76 | 1033.7 |
| 20260503225905 | 15 | 344 | 3.2 | 4.8 | 0.00 | 0.05 | 0.00 | 77 | 1033.7 |
| 20260503225405 | 15 | 355 | 3.2 | 4.8 | 0.00 | 0.05 | 0.00 | 77 | 1033.7 |
| 20260503223905 | 15 | 349 | 3.2 | 4.8 | 0.00 | 0.05 | 0.00 | 77 | 1033.6 |
| 20260503223406 | 15 | 346 | 1.6 | 4.8 | 0.00 | 0.05 | 0.00 | 77 | 1033.7 |
| 20260503222405 | 14 | 4 | 0.0 | 1.6 | 0.00 | 0.05 | 0.00 | 78 | 1033.7 |
| 20260503221906 | 15 | 4 | 1.6 | 4.8 | 0.00 | 0.05 | 0.00 | 79 | 1033.7 |
| 20260503221406 | 15 | 38 | 1.6 | 4.8 | 0.00 | 0.05 | 0.00 | 79 | 1033.8 |
| 20260503220906 | 14 | 12 | 0.0 | 3.2 | 0.00 | 0.05 | 0.00 | 81 | 1033.7 |
| 20260503215904 | 13 | 31 | 1.6 | 4.8 | 0.00 | 0.05 | 0.00 | 82 | 1033.7 |
| 20260503215405 | 13 | 73 | 1.6 | 4.8 | 0.00 | 0.05 | 0.00 | 82 | 1033.8 |
| 20260503214904 | 13 | 35 | 1.6 | 4.8 | 0.00 | 0.05 | 0.00 | 83 | 1033.8 |
| 20260503214404 | 13 | 31 | 0.0 | 3.2 | 0.00 | 0.05 | 0.00 | 84 | 1033.8 |
| 20260503213905 | 12 | 127 | 0.0 | 3.2 | 0.00 | 0.05 | 0.00 | 84 | 1033.7 |
| 20260503213405 | 12 | 132 | 1.6 | 3.2 | 0.00 | 0.05 | 0.00 | 84 | 1033.7 |
| 20260503212904 | 12 | 132 | 0.0 | 1.6 | 0.00 | 0.05 | 0.00 | 85 | 1033.7 |
| 20260503212407 | 12 | 133 | 0.0 | 1.6 | 0.00 | 0.05 | 0.00 | 85 | 1033.7 |
| 20260503211405 | 12 | 133 | 0.0 | 1.6 | 0.00 | 0.05 | 0.00 | 85 | 1033.7 |
| 20260503210906 | 12 | 133 | 0.0 | 1.6 | 0.00 | 0.05 | 0.00 | 85 | 1033.6 |
| 20260503210405 | 12 | 133 | 1.6 | 3.2 | 0.00 | 0.05 | 0.00 | 86 | 1033.6 |
| 20260503205905 | 12 | 135 | 1.6 | 3.2 | 0.00 | 0.05 | 0.00 | 87 | 1033.6 |
| 20260503204904 | 11 | 104 | 1.6 | 3.2 | 0.00 | 0.05 | 0.00 | 88 | 1033.6 |
| 20260503204405 | 11 | 128 | 1.6 | 4.8 | 0.00 | 0.05 | 0.00 | 88 | 1033.6 |
| 20260503203904 | 11 | 93 | 1.6 | 3.2 | 0.00 | 0.05 | 0.00 | 89 | 1033.6 |
| 20260503203404 | 11 | 102 | 0.0 | 3.2 | 0.00 | 0.05 | 0.00 | 89 | 1033.5 |
| 20260503202906 | 11 | 92 | 0.0 | 3.2 | 0.00 | 0.05 | 0.00 | 89 | 1033.5 |
| 20260503202405 | 11 | 101 | 1.6 | 4.8 | 0.00 | 0.05 | 0.00 | 89 | 1033.4 |
| 20260503201905 | 11 | 125 | 0.0 | 3.2 | 0.00 | 0.05 | 0.00 | 89 | 1033.4 |
| 20260503201405 | 11 | 112 | 1.6 | 4.8 | 0.00 | 0.05 | 0.00 | 89 | 1033.4 |
| 20260503200906 | 10 | 122 | 1.6 | 4.8 | 0.00 | 0.05 | 0.00 | 89 | 1033.4 |
| 20260503200405 | 10 | 101 | 1.6 | 4.8 | 0.00 | 0.05 | 0.00 | 89 | 1033.3 |
| 20260503195906 | 10 | 118 | 1.6 | 4.8 | 0.00 | 0.05 | 0.00 | 89 | 1033.3 |
| 20260503195405 | 10 | 106 | 3.2 | 4.8 | 0.00 | 0.05 | 0.00 | 89 | 1033.1 |
| 20260503194406 | 10 | 109 | 3.2 | 4.8 | 0.00 | 0.05 | 0.00 | 89 | 1033.0 |
| 20260503193905 | 10 | 97 | 4.8 | 9.7 | 0.00 | 0.05 | 0.00 | 89 | 1033.0 |
| 20260503193405 | 10 | 93 | 4.8 | 11.3 | 0.00 | 0.05 | 0.00 | 89 | 1033.0 |
| 20260503192907 | 10 | 94 | 4.8 | 9.7 | 0.00 | 0.05 | 0.00 | 89 | 1032.9 |
| 20260503192406 | 10 | 77 | 3.2 | 9.7 | 0.00 | 0.05 | 0.00 | 90 | 1032.9 |
| 20260503191904 | 10 | 86 | 3.2 | 4.8 | 0.00 | 0.05 | 0.00 | 90 | 1032.9 |
| 20260503191405 | 10 | 86 | 3.2 | 4.8 | 0.00 | 0.05 | 0.00 | 90 | 1032.9 |
| 20260503190905 | 10 | 80 | 1.6 | 3.2 | 0.00 | 0.05 | 0.00 | 90 | 1032.9 |
| 20260503185905 | 10 | 83 | 1.6 | 3.2 | 0.00 | 0.05 | 0.00 | 90 | 1032.8 |
| 20260503183906 | 10 | 90 | 3.2 | 4.8 | 0.00 | 0.05 | 0.00 | 90 | 1032.7 |
| 20260503183406 | 10 | 88 | 4.8 | 4.8 | 0.00 | 0.05 | 0.00 | 90 | 1032.7 |
| 20260503182905 | 10 | 101 | 4.8 | 9.7 | 0.00 | 0.05 | 0.00 | 91 | 1032.7 |
| 20260503182405 | 10 | 91 | 3.2 | 4.8 | 0.00 | 0.05 | 0.00 | 91 | 1032.7 |
| 20260503181905 | 10 | 96 | 3.2 | 4.8 | 0.00 | 0.05 | 0.00 | 91 | 1032.7 |
| 20260503180905 | 10 | 104 | 1.6 | 4.8 | 0.00 | 0.05 | 0.00 | 90 | 1032.7 |
| 20260503180405 | 10 | 101 | 3.2 | 4.8 | 0.00 | 0.05 | 0.00 | 91 | 1032.7 |
| 20260503175406 | 9 | 216 | 0.0 | 1.6 | 0.00 | 0.05 | 0.00 | 90 | 1032.5 |
| 20260503174905 | 9 | 216 | 0.0 | 1.6 | 0.00 | 0.05 | 0.00 | 90 | 1032.5 |
| 20260503174406 | 9 | 216 | 0.0 | 1.6 | 0.00 | 0.05 | 0.00 | 90 | 1032.5 |
| 20260503173905 | 10 | 216 | 0.0 | 0.0 | 0.00 | 0.05 | 0.00 | 90 | 1032.5 |
| 20260503173406 | 10 | 216 | 0.0 | 1.6 | 0.00 | 0.05 | 0.00 | 90 | 1032.5 |
| 20260503172905 | 10 | 216 | 0.0 | 1.6 | 0.00 | 0.05 | 0.00 | 90 | 1032.6 |
| 20260503172406 | 10 | 157 | 0.0 | 1.6 | 0.00 | 0.05 | 0.00 | 90 | 1032.7 |
| 20260503171906 | 10 | 157 | 0.0 | 1.6 | 0.00 | 0.05 | 0.00 | 90 | 1032.7 |
| 20260503171405 | 10 | 154 | 0.0 | 1.6 | 0.00 | 0.05 | 0.00 | 90 | 1032.8 |
| 20260503170906 | 10 | 154 | 0.0 | 1.6 | 0.00 | 0.05 | 0.00 | 90 | 1032.8 |
| 20260503170405 | 10 | 153 | 0.0 | 1.6 | 0.00 | 0.05 | 0.00 | 90 | 1032.8 |
| 20260503150906 | 10 | 340 | 0.0 | 0.0 | 0.00 | 0.05 | 0.00 | 90 | 1033.3 |
| 20260503150405 | 10 | 341 | 0.0 | 0.0 | 0.00 | 0.05 | 0.00 | 90 | 1033.4 |
| 20260503131406 | 11 | 144 | 0.0 | 0.0 | 0.00 | 0.08 | 0.00 | 90 | 1033.4 |
| 20260503130905 | 11 | 144 | 0.0 | 0.0 | 0.00 | 0.08 | 0.00 | 90 | 1033.4 |
| 20260503130405 | 11 | 144 | 0.0 | 1.6 | 0.00 | 0.08 | 0.00 | 90 | 1033.5 |
| 20260503110405 | 11 | 102 | 0.0 | 1.6 | 0.00 | 0.05 | 0.05 | 89 | 1033.3 |
| 20260503090404 | 11 | 102 | 0.0 | 1.6 | 0.00 | 0.05 | 0.05 | 88 | 1032.2 |
| 20260503081406 | 11 | 102 | 0.0 | 0.0 | 0.00 | 0.05 | 0.05 | 87 | 1032.1 |
| 20260503080404 | 11 | 102 | 0.0 | 0.0 | 0.00 | 0.05 | 0.05 | 86 | 1032.2 |
| 20260503072906 | 12 | 102 | 0.0 | 0.0 | 0.00 | 0.05 | 0.05 | 85 | 1032.0 |
| 20260503072405 | 12 | 102 | 0.0 | 1.6 | 0.00 | 0.05 | 0.05 | 84 | 1031.9 |
| 20260503071904 | 12 | 95 | 0.0 | 1.6 | 0.00 | 0.05 | 0.05 | 83 | 1031.9 |
| 20260503070906 | 12 | 79 | 0.0 | 1.6 | 0.00 | 0.05 | 0.05 | 83 | 1032.0 |
| 20260503054905 | 13 | 359 | 0.0 | 3.2 | 0.03 | 0.05 | 0.05 | 80 | 1032.0 |
| 20260503054404 | 13 | 359 | 0.0 | 1.6 | 0.03 | 0.05 | 0.05 | 80 | 1032.1 |
| 20260503053905 | 13 | 359 | 0.0 | 3.2 | 0.03 | 0.05 | 0.05 | 80 | 1032.0 |
| 20260503053404 | 14 | 348 | 1.6 | 3.2 | 0.03 | 0.05 | 0.05 | 79 | 1032.1 |
| 20260503052905 | 14 | 234 | 1.6 | 3.2 | 0.03 | 0.05 | 0.05 | 79 | 1032.0 |
| 20260503052405 | 15 | 215 | 0.0 | 4.8 | 0.03 | 0.05 | 0.05 | 79 | 1032.0 |
| 20260503051906 | 15 | 190 | 1.6 | 4.8 | 0.03 | 0.05 | 0.05 | 79 | 1032.0 |
| 20260503051405 | 15 | 222 | 0.0 | 4.8 | 0.03 | 0.05 | 0.05 | 79 | 1032.0 |
| 20260503045904 | 15 | 346 | 3.2 | 12.9 | 0.00 | 0.03 | 0.03 | 78 | 1032.2 |
| 20260503044904 | 15 | 317 | 3.2 | 8.0 | 0.00 | 0.03 | 0.03 | 77 | 1032.3 |
| 20260503044404 | 16 | 329 | 4.8 | 14.5 | 0.00 | 0.03 | 0.03 | 77 | 1032.3 |
| 20260503043904 | 16 | 301 | 4.8 | 12.9 | 0.00 | 0.03 | 0.03 | 76 | 1032.3 |
| 20260503043404 | 16 | 345 | 4.8 | 9.7 | 0.00 | 0.03 | 0.03 | 77 | 1032.3 |
| 20260503042904 | 16 | 334 | 3.2 | 14.5 | 0.00 | 0.03 | 0.03 | 77 | 1032.3 |
| 20260503042404 | 16 | 352 | 6.4 | 12.9 | 0.00 | 0.03 | 0.03 | 76 | 1032.3 |
| 20260503041904 | 16 | 302 | 4.8 | 9.7 | 0.00 | 0.03 | 0.03 | 76 | 1032.4 |
| 20260503041404 | 16 | 331 | 4.8 | 14.5 | 0.00 | 0.03 | 0.03 | 76 | 1032.4 |
| 20260503040905 | 16 | 336 | 4.8 | 16.1 | 0.00 | 0.03 | 0.03 | 76 | 1032.4 |
| 20260503040404 | 16 | 344 | 4.8 | 14.5 | 0.00 | 0.03 | 0.03 | 76 | 1032.4 |
| 20260503035904 | 16 | 318 | 8.0 | 16.1 | 0.00 | 0.03 | 0.03 | 76 | 1032.4 |
| 20260503034904 | 16 | 341 | 8.0 | 16.1 | 0.00 | 0.03 | 0.03 | 75 | 1032.4 |
| 20260503034404 | 16 | 313 | 4.8 | 16.1 | 0.00 | 0.03 | 0.03 | 74 | 1032.4 |
| 20260503033904 | 16 | 299 | 4.8 | 16.1 | 0.00 | 0.03 | 0.03 | 75 | 1032.5 |
| 20260503033404 | 16 | 322 | 6.4 | 12.9 | 0.00 | 0.03 | 0.03 | 74 | 1032.4 |
| 20260503032904 | 16 | 337 | 4.8 | 16.1 | 0.00 | 0.03 | 0.03 | 75 | 1032.4 |
| 20260503032404 | 16 | 338 | 8.0 | 14.5 | 0.00 | 0.03 | 0.03 | 74 | 1032.5 |
| 20260503031404 | 16 | 343 | 4.8 | 14.5 | 0.00 | 0.03 | 0.03 | 75 | 1032.5 |
| 20260503030904 | 16 | 323 | 4.8 | 14.5 | 0.00 | 0.03 | 0.03 | 75 | 1032.6 |
| 20260503030404 | 16 | 341 | 4.8 | 12.9 | 0.00 | 0.03 | 0.03 | 75 | 1032.7 |
| 20260503025904 | 16 | 336 | 8.0 | 16.1 | 0.00 | 0.03 | 0.03 | 75 | 1032.8 |
| 20260503025406 | 16 | 340 | 4.8 | 14.5 | 0.00 | 0.03 | 0.03 | 75 | 1032.8 |
| 20260503024904 | 17 | 343 | 8.0 | 16.1 | 0.00 | 0.03 | 0.03 | 74 | 1032.8 |
| 20260503024405 | 17 | 329 | 8.0 | 16.1 | 0.00 | 0.03 | 0.03 | 74 | 1032.9 |
| 20260503023905 | 17 | 327 | 4.8 | 11.3 | 0.00 | 0.03 | 0.03 | 74 | 1032.9 |
| 20260503023406 | 17 | 338 | 6.4 | 12.9 | 0.00 | 0.03 | 0.03 | 72 | 1032.9 |
| 20260503022904 | 17 | 356 | 4.8 | 14.5 | 0.00 | 0.03 | 0.03 | 73 | 1032.9 |
| 20260503022404 | 17 | 358 | 6.4 | 14.5 | 0.00 | 0.03 | 0.03 | 73 | 1033.0 |